SVMC/MAR METAR and TAF weather

Enter ICAO airport designator
Station Type Date Time Source
SVMC METAR 2021/07/04 21:03 UTC NOAA

SVMC 042103Z AUTO 00000KT NCD 34/// Q////


Station Type Date Time Source
SVMC Decoded METAR 2021/07/04 21:03 UTC NOAA

Maracaibo-La Chinita, Venezuela (SVMC) 10-34N 071-44W 65M
Jul 04, 2021 - 05:03 PM EDT / 2021.07.04 2103 UTC
Wind: Calm:0
Temperature: 93 F (34 C)
ob: SVMC 042103Z AUTO 00000KT NCD 34/// Q////
cycle: 21

Station Type Date Time Source
SVMC TAF 2021/09/23 18:04 UTC NOAA

TAF SVMC 231600Z 2318/2418 18005KT 9999 SCT016 TX34/2318Z TN25/2407Z
BECMG 2318/2322 36006KT 9999 SCT016

Example: see airport list